Location: Balmoral
(33.0667°S, 151.5833°E)
Time: 17:27:55
(UTC+00:00)

ADEOS - Pass Details

Date: 18 September 2020
Orbit: 792 x 794 km, 98.9° (Epoch: 24 October)

Event Time Altitude Azimuth Distance (km) Brightness Sun altitude
Exits shadow 17:46:19 59° 218° (SW) 924 3.7 -25.9°
Drops below altitude 10° 17:50:39 10° 197° (SSW) 2,389 6.0 -25.0°
Sets 17:53:00 0° 195° (SSW) 3,326 6.8 -24.6°
